|
|
Asteroid 2011 WB39
(Preview)
Orbital elements:
2011 WB39 Earth MOID = 0.1386 AU
Epoch 2011 Aug. 27.0 TT = JDT 2455800.5 MPC
M 295.03484 (2000.0) P Q
n 0.41651034 Peri. 72.93721 -0.61046404 -0.77630140
a 1.7757651 Node 55.73582 +0.63499449 -0.59826713
e 0.4379743 Incl. 10.96015 +0.47340854 -0.19857639
P 2.37 H 23.3 G...
|
Blobrana
|
0
|
|
|
|
|
Asteroid 2011 SR69
(Preview)
Orbital elements:
2011 SR69 Earth MOID = 0.1033 AU
Epoch 2011 Aug. 27.0 TT = JDT 2455800.5 MPC
M 333.48599 (2000.0) P Q
n 0.26558869 Peri. 207.79411 +0.26256782 -0.96200204
a 2.3969722 Node 227.08971 +0.90317751 +0.27234697
e 0.5491673 Incl. 5.86965 +0.33960054 +0.01947323
P 3.71 H 19.9...
|
Blobrana
|
2
|
|
|
|
|
Asteroid 2011 WE32
(Preview)
Orbital elements:
2011 WE32 Earth MOID = 0.2824 AU
Epoch 2011 Aug. 27.0 TT = JDT 2455800.5 MPC
M 349.91154 (2000.0) P Q
n 0.26507592 Peri. 145.64863 +0.88879876 -0.32814502
a 2.4000624 Node 236.72729 +0.28499682 +0.94243924
e 0.4878866 Incl. 22.49882 +0.35890609 +0.06425830
P 3.72 H 20....
|
Blobrana
|
0
|
|
|
|
|
Asteroid 2011 WF32
(Preview)
Orbital elements:
2011 WF32 Earth MOID = 0.2143 AU
Epoch 2011 Aug. 27.0 TT = JDT 2455800.5 MPC
M 330.79057 (2000.0) P Q
n 0.21432596 Peri. 48.42063 -0.25285075 -0.94395184
a 2.7653676 Node 57.43169 +0.79577219 -0.32764214
e 0.5908221 Incl. 14.58251 +0.55028458 +0.04006941
P 4.60 H 22.4 G...
|
Blobrana
|
0
|
|
|
|
|
Asteroid 2002 VU114
(Preview)
Orbital elements:
2002 VU114 Earth MOID = 0.0343 AU
Epoch 2011 Aug. 27.0 TT = JDT 2455800.5 MPC
M 242.00953 (2000.0) P Q
n 0.76737431 Peri. 150.75056 -0.80812635 -0.58898081
a 1.1815839 Node 353.15605 +0.53054105 -0.72361019
e 0.2859403 Incl. 2.78002 +0.25584759 -0.35984706
P 1.28 H 22....
|
Blobrana
|
0
|
|
|
|
|
Asteroid occultations
(Preview)
Title: Asteroid occultations today and tomorrow: toward the GAIA era Authors: P. Tanga (OCA), M. Delbo (OCA, Inaf-Osservatorio Astronomico Di Torino) Context: Observation of star occultations is a powerful tool to determine shapes and sizes of asteroids. This is key information necessary for...
|
Blobrana
|
1
|
|
|
|
|
Asteroid 2011 WH15
(Preview)
Orbital elements:
2011 WH15 Earth MOID = 0.3071 AU
Epoch 2011 Aug. 27.0 TT = JDT 2455800.5 MPC
M 297.27799 (2000.0) P Q
n 0.31892381 Peri. 151.70992 -0.97950103 +0.03291724
a 2.1216712 Node 32.12304 -0.15847539 -0.73493950
e 0.7267401 Incl. 21.94637 +0.12435142 -0.67733330
P 3.09 H 20.1...
|
Blobrana
|
0
|
|
|
|
|
Asteroid 2011 WJ15
(Preview)
Orbital elements:
2011 WJ15 Earth MOID = 0.0046 AU
Epoch 2011 Aug. 27.0 TT = JDT 2455800.5 MPC
M 348.52264 (2000.0) P Q
n 0.27778755 Peri. 260.30689 +0.72880658 +0.64850543
a 2.3262740 Node 58.89973 -0.48315974 +0.71445721
e 0.7906843 Incl. 14.86934 -0.48517794 +0.26266253
P 3.55 H 25.2...
|
Blobrana
|
0
|
|
|
|
|
Asteroid 1994 PC1
(Preview)
Title: The Orbit of Asteroid 1994 PC1 Authors: Sophia Jane Balkoski, Laksh Bhasin, Milly KeQi Wang Near-Earth Asteroids can be hazardous to the Earth, due to their orbital characteristics and proximity to inner Solar System planets. Using three sets of CCD images collected in June and July 2011, t...
|
Blobrana
|
0
|
|
|
|
|
Asteroid 2011 WK14
(Preview)
Orbital elements:
2011 WK14 Earth MOID = 0.0988 AU
Epoch 2011 Aug. 27.0 TT = JDT 2455800.5 MPC
M 20.36375 (2000.0) P Q
n 0.41088871 Peri. 110.28020 +0.67888903 +0.73376588
a 1.7919253 Node 202.54337 -0.69673943 +0.63245104
e 0.3935681 Incl. 3.94954 -0.23165458 +0.24817998
P 2.40 H 20.6 G...
|
Blobrana
|
0
|
|
|
|
|
Asteroid 2010 RX30 and 2010 RF12
(Preview)
Two Asteroids to Pass by Earth Near-Earth asteroid 2010 RX30 is estimated to be 32 to 65 feet (10 to 20 meters) in size and will pass within 0.6 lunar distances of Earth (about 154,000 miles, or 248,000 kilometres) at 2:51 a.m. PDT (5:51 a.m. EDT) Wednesday. The second object, 2010 RF12, estimated to be...
|
Blobrana
|
3
|
|
|
|
|
Asteroid 2011 RC17
(Preview)
Orbital elements:
2011 RC17
Epoch 2011 Aug. 27.0 TT = JDT 2455800.5 MPC
M 356.38280 (2000.0) P Q
n 0.06169726 Peri. 194.08376 +0.68512878 -0.72059472
a 6.3429626 Node 212.87212 +0.68586932 +0.68741208
e 0.5397917 Incl. 11.31561 +0.24531986 +0.09059733
P 15.97 H 15.1 G 0.15 U 3 MPEC 2011 -...
|
Blobrana
|
0
|
|
|
|
|
Asteroid 2011 WK5
(Preview)
Orbital elements:
2011 WK5 Earth MOID = 0.0795 AU
Epoch 2011 Aug. 27.0 TT = JDT 2455800.5 MPC
M 327.69070 (2000.0) P Q
n 0.30541690 Peri. 184.18552 +0.21542152 -0.97160876
a 2.1837722 Node 253.39566 +0.89887826 +0.23644214
e 0.5121372 Incl. 5.85913 +0.38159067 -0.00845740
P 3.23 H 23.6 G...
|
Blobrana
|
0
|
|
|
|
|
Asteroid 2011 WH5
(Preview)
Orbital elements:
2011 WH5 Earth MOID = 0.2785 AU
Epoch 2011 Aug. 27.0 TT = JDT 2455800.5 MPC
M 335.84038 (2000.0) P Q
n 0.27976199 Peri. 181.26374 +0.50140622 -0.85304086
a 2.3153158 Node 238.66119 +0.79529448 +0.52022727
e 0.4526663 Incl. 9.74803 +0.34073230 +0.04104724
P 3.52 H 23.2 G...
|
Blobrana
|
0
|
|
|
|
|
Asteroid 2011 WU4
(Preview)
Orbital elements:
2011 WU4 Earth MOID = 0.0834 AU
Epoch 2011 Aug. 27.0 TT = JDT 2455800.5 MPC
M 310.91234 (2000.0) P Q
n 0.36204059 Peri. 85.98818 -0.45683886 -0.88769596
a 1.9496854 Node 31.39907 +0.76618084 -0.42544295
e 0.5224889 Incl. 6.32472 +0.45195705 -0.17605163
P 2.72 H 22.5 G 0....
|
Blobrana
|
0
|
|
|